VK6JI-11 Weather Reports


time (UTC)temp
C
wind
direction
speed
KPH
gust
KPH
rain 1hr
cm
rain 24hr
cm
rain mn
cm
humidity
%
barometer
mb
20260503181131 10 214 0.0 0.0 0.00 0.00 0.00 89 1025.8
20260503180931 10 214 0.0 0.0 0.00 0.00 0.00 89 1025.8
20260503180729 10 214 0.0 0.0 0.00 0.00 0.00 89 1025.8
20260503180529 10 214 0.0 0.0 0.00 0.00 0.00 89 1025.8
20260503180330 10 214 0.0 0.0 0.00 0.00 0.00 89 1025.8
20260503180127 10 214 0.0 0.0 0.00 0.00 0.00 89 1025.8
20260503175925 10 214 0.0 0.0 0.00 0.00 0.00 89 1025.8
20260503175725 10 214 0.0 0.0 0.00 0.00 0.00 89 1025.8
20260503175525 10 214 0.0 0.0 0.00 0.00 0.00 89 1025.8
20260503175326 10 214 0.0 0.0 0.00 0.00 0.00 89 1025.8
20260503175126 10 214 0.0 0.0 0.00 0.00 0.00 89 1025.8
20260503174924 10 214 0.0 0.0 0.00 0.00 0.00 89 1025.8
20260503174725 10 214 0.0 0.0 0.00 0.00 0.00 89 1025.8
20260503174526 10 214 0.0 0.0 0.00 0.00 0.00 89 1025.8
20260503174325 10 214 0.0 0.0 0.00 0.00 0.00 89 1025.8
20260503174124 10 214 0.0 0.0 0.00 0.00 0.00 90 1025.8
20260503173925 10 214 0.0 0.0 0.00 0.00 0.00 90 1025.9
20260503173725 10 214 0.0 0.0 0.00 0.00 0.00 90 1025.8
20260503173526 10 214 0.0 0.0 0.00 0.00 0.00 90 1025.8
20260503173325 10 214 0.0 0.0 0.00 0.00 0.00 90 1025.8
20260503173125 10 214 0.0 0.0 0.00 0.00 0.00 90 1025.7
20260503172925 10 214 0.0 0.0 0.00 0.00 0.00 90 1025.8
20260503172724 10 214 0.0 0.0 0.00 0.00 0.00 90 1025.8
20260503172524 10 214 0.0 0.0 0.00 0.00 0.00 90 1025.9
20260503172325 10 214 0.0 0.0 0.00 0.00 0.00 90 1025.9
20260503172129 10 214 0.0 0.0 0.00 0.00 0.00 89 1025.8
20260503171924 10 214 0.0 0.0 0.00 0.00 0.00 89 1025.9
20260503171725 10 214 0.0 0.0 0.00 0.00 0.00 90 1025.9
20260503171524 10 214 0.0 0.0 0.00 0.00 0.00 90 1025.9
20260503171324 10 214 0.0 0.0 0.00 0.00 0.00 90 1025.9
20260503171124 10 214 0.0 0.0 0.00 0.00 0.00 89 1025.9
20260503170924 10 214 0.0 0.0 0.00 0.00 0.00 89 1026.0
20260503170724 10 214 0.0 0.0 0.00 0.00 0.00 89 1026.0
20260503170537 10 214 0.0 0.0 0.00 0.00 0.00 89 1025.9
20260503170325 10 214 0.0 0.0 0.00 0.00 0.00 89 1026.0
20260503170123 10 214 0.0 0.0 0.00 0.00 0.00 89 1026.1
20260503150843 11 214 0.0 0.0 0.00 0.00 0.00 88 1025.6
20260503150641 11 214 0.0 0.0 0.00 0.00 0.00 88 1025.8
20260503150441 11 214 0.0 0.0 0.00 0.00 0.00 87 1025.7
20260503150240 11 214 0.0 0.0 0.00 0.00 0.00 87 1025.8
20260503140218 12 214 0.0 0.0 0.00 0.00 0.00 87 1025.7
20260503131357 13 214 0.0 0.0 0.00 0.00 0.00 86 1025.3
20260503131156 13 214 0.0 0.0 0.00 0.00 0.00 86 1025.3
20260503130956 13 214 0.0 0.0 0.00 0.00 0.00 86 1025.3
20260503130756 13 214 0.0 0.0 0.00 0.00 0.00 86 1025.2
20260503130556 13 214 0.0 0.0 0.00 0.00 0.00 86 1025.3
20260503130356 13 214 0.0 0.0 0.00 0.00 0.00 86 1025.3
20260503130153 13 214 0.0 0.0 0.00 0.00 0.00 86 1025.2
20260503120135 13 214 0.0 0.0 0.00 0.00 0.00 82 1025.1
20260503110714 15 214 0.0 0.0 0.00 0.00 0.00 77 1024.9
20260503110513 15 214 0.0 0.0 0.00 0.00 0.00 77 1024.8
20260503110313 15 214 0.0 0.0 0.00 0.00 0.00 76 1024.9
20260503110113 15 214 0.0 0.0 0.00 0.00 0.00 76 1024.8
20260503090503 19 107 0.0 3.2 0.00 0.00 0.00 61 1024.1
20260503090302 19 107 0.0 3.2 0.00 0.00 0.00 60 1024.1
20260503081502 20 77 1.6 6.4 0.00 0.00 0.00 58 1023.7
20260503081302 20 77 1.6 6.4 0.00 0.00 0.00 58 1023.8
20260503081102 20 77 0.0 6.4 0.00 0.00 0.00 57 1023.8
20260503080901 20 77 1.6 6.4 0.00 0.00 0.00 57 1023.7
20260503080702 20 76 3.2 6.4 0.00 0.00 0.00 57 1023.8
20260503080502 20 142 3.2 6.4 0.00 0.00 0.00 56 1023.8
20260503080302 20 127 3.2 6.4 0.00 0.00 0.00 56 1023.8
20260503072902 21 127 1.6 4.8 0.00 0.00 0.00 56 1023.9
20260503072702 21 128 1.6 4.8 0.00 0.00 0.00 56 1023.9
20260503072502 21 155 0.0 4.8 0.00 0.00 0.00 56 1023.9
20260503072305 21 155 1.6 6.4 0.00 0.00 0.00 56 1023.9
20260503072102 21 108 0.0 6.4 0.00 0.00 0.00 56 1023.9
20260503071902 21 108 1.6 6.4 0.00 0.00 0.00 56 1023.9
20260503071702 21 108 1.6 6.4 0.00 0.00 0.00 55 1023.9
20260503071504 21 130 3.2 6.4 0.00 0.00 0.00 56 1023.8
20260503071302 22 111 1.6 4.8 0.00 0.00 0.00 57 1023.8
20260503071102 22 163 1.6 4.8 0.00 0.00 0.00 57 1023.8
20260503070902 22 154 1.6 6.4 0.00 0.00 0.00 57 1023.8
20260503070703 21 161 1.6 6.4 0.00 0.00 0.00 58 1023.8
20260503070502 21 162 1.6 6.4 0.00 0.00 0.00 58 1023.8
20260503070302 21 210 1.6 6.4 0.00 0.00 0.00 57 1023.8
20260503060303 22 117 3.2 4.8 0.00 0.00 0.00 57 1024.0
20260503055102 22 117 1.6 4.8 0.00 0.00 0.00 58 1024.0
20260503054902 21 117 0.0 8.0 0.00 0.00 0.00 59 1024.0
20260503054702 21 70 0.0 8.0 0.00 0.00 0.00 59 1024.0
20260503054503 21 70 1.6 8.0 0.00 0.00 0.00 58 1024.0
20260503054302 21 69 3.2 8.0 0.00 0.00 0.00 58 1024.1
20260503054102 21 90 3.2 8.0 0.00 0.00 0.00 59 1024.1
20260503053902 21 32 3.2 6.4 0.00 0.00 0.00 59 1024.1
20260503053658 21 101 1.6 6.4 0.00 0.00 0.00 59 1024.0
20260503053457 21 103 1.6 6.4 0.00 0.00 0.00 59 1024.1
20260503053257 21 94 1.6 6.4 0.00 0.00 0.00 59 1024.1
20260503053057 21 87 3.2 6.4 0.00 0.00 0.00 59 1024.1
20260503052856 21 99 1.6 6.4 0.00 0.00 0.00 59 1024.2
20260503052656 21 99 1.6 6.4 0.00 0.00 0.00 59 1024.2
20260503052455 21 113 1.6 6.4 0.00 0.00 0.00 59 1024.3
20260503052254 21 107 3.2 6.4 0.00 0.00 0.00 59 1024.2
20260503052054 21 72 3.2 6.4 0.00 0.00 0.00 59 1024.2
20260503051854 21 55 3.2 6.4 0.00 0.00 0.00 59 1024.2
20260503051653 21 73 3.2 4.8 0.00 0.00 0.00 59 1024.3
20260503051454 21 107 1.6 6.4 0.00 0.00 0.00 60 1024.3
20260503051252 21 90 1.6 11.3 0.00 0.00 0.00 60 1024.3
20260503051052 21 90 1.6 11.3 0.00 0.00 0.00 60 1024.4
20260503050853 21 89 1.6 11.3 0.00 0.00 0.00 60 1024.4
20260503050651 21 86 3.2 11.3 0.00 0.00 0.00 60 1024.4
20260503050451 21 62 3.2 11.3 0.00 0.00 0.00 60 1024.4
20260503050251 21 118 1.6 6.4 0.00 0.00 0.00 61 1024.4
20260503050052 21 158 3.2 6.4 0.00 0.00 0.00 60 1024.4
20260503045847 21 161 3.2 6.4 0.00 0.00 0.00 61 1024.4
20260503045646 20 123 1.6 4.8 0.00 0.00 0.00 62 1024.5
20260503045446 20 123 3.2 6.4 0.00 0.00 0.00 61 1024.5
20260503045246 20 130 1.6 6.4 0.00 0.00 0.00 61 1024.5
20260503045046 20 130 1.6 6.4 0.00 0.00 0.00 61 1024.6
20260503044846 20 123 1.6 6.4 0.00 0.00 0.00 61 1024.6
20260503044647 20 124 3.2 6.4 0.00 0.00 0.00 61 1024.7
20260503044446 20 99 1.6 6.4 0.00 0.00 0.00 61 1024.8
20260503044246 20 90 3.2 6.4 0.00 0.00 0.00 61 1024.8
20260503044046 20 113 3.2 6.4 0.00 0.00 0.00 61 1024.8
20260503043846 20 100 3.2 6.4 0.00 0.00 0.00 61 1024.8
20260503043646 20 114 3.2 6.4 0.00 0.00 0.00 61 1024.8
20260503043446 20 76 3.2 6.4 0.00 0.00 0.00 62 1024.8
20260503043246 20 69 1.6 8.0 0.00 0.00 0.00 62 1024.9
20260503043046 20 35 4.8 8.0 0.00 0.00 0.00 62 1024.9
20260503042846 20 128 3.2 8.0 0.00 0.00 0.00 62 1025.0
20260503042646 20 65 3.2 8.0 0.00 0.00 0.00 62 1025.1
20260503042447 20 63 3.2 8.0 0.00 0.00 0.00 61 1025.1
20260503042246 20 111 3.2 8.0 0.00 0.00 0.00 61 1025.2
20260503042045 20 106 3.2 8.0 0.00 0.00 0.00 62 1025.2
20260503041846 20 86 3.2 8.0 0.00 0.00 0.00 62 1025.2
20260503041644 20 92 3.2 6.4 0.00 0.00 0.00 62 1025.2
20260503041444 20 123 3.2 6.4 0.00 0.00 0.00 62 1025.3
20260503041245 20 94 3.2 6.4 0.00 0.00 0.00 62 1025.3
20260503041044 20 121 3.2 6.4 0.00 0.00 0.00 62 1025.3
20260503040843 20 118 3.2 6.4 0.00 0.00 0.00 62 1025.3
20260503040645 20 107 1.6 6.4 0.00 0.00 0.00 63 1025.3
20260503040443 20 108 3.2 6.4 0.00 0.00 0.00 63 1025.4
20260503040244 20 100 3.2 8.0 0.00 0.00 0.00 62 1025.4
20260503040044 20 123 3.2 8.0 0.00 0.00 0.00 62 1025.5
20260503035842 20 114 1.6 8.0 0.00 0.00 0.00 62 1025.5
20260503035642 20 114 3.2 8.0 0.00 0.00 0.00 62 1025.5
20260503035442 20 84 3.2 8.0 0.00 0.00 0.00 62 1025.6
20260503035248 20 104 3.2 6.4 0.00 0.00 0.00 63 1025.6
20260503035043 20 113 1.6 6.4 0.00 0.00 0.00 63 1025.6
20260503034843 20 113 1.6 6.4 0.00 0.00 0.00 64 1025.7
20260503034642 20 111 3.2 6.4 0.00 0.00 0.00 63 1025.7
20260503034442 20 115 3.2 6.4 0.00 0.00 0.00 63 1025.6
20260503034242 20 151 3.2 6.4 0.00 0.00 0.00 63 1025.7
20260503034042 20 120 1.6 6.4 0.00 0.00 0.00 63 1025.7
20260503033842 20 118 1.6 6.4 0.00 0.00 0.00 63 1025.7
20260503033642 20 117 3.2 6.4 0.00 0.00 0.00 64 1025.8
20260503033442 20 117 1.6 6.4 0.00 0.00 0.00 64 1025.8
20260503033242 20 117 3.2 6.4 0.00 0.00 0.00 64 1025.9
20260503033040 20 117 3.2 6.4 0.00 0.00 0.00 64 1025.8
20260503032839 20 121 3.2 6.4 0.00 0.00 0.00 64 1025.8
20260503032638 20 120 3.2 6.4 0.00 0.00 0.00 64 1025.8
20260503032438 20 115 1.6 4.8 0.00 0.00 0.00 64 1025.8
20260503032237 20 115 3.2 8.0 0.00 0.00 0.00 64 1025.8
20260503032037 20 120 1.6 8.0 0.00 0.00 0.00 65 1025.9
20260503031837 20 120 3.2 8.0 0.00 0.00 0.00 64 1025.9
20260503031637 19 118 1.6 8.0 0.00 0.00 0.00 64 1025.9
20260503031436 19 117 3.2 8.0 0.00 0.00 0.00 65 1025.9
20260503031235 19 107 3.2 8.0 0.00 0.00 0.00 65 1025.9
20260503031035 19 107 3.2 8.0 0.00 0.00 0.00 65 1025.9
20260503030835 19 75 1.6 8.0 0.00 0.00 0.00 65 1025.9
20260503030634 19 73 4.8 8.0 0.00 0.00 0.00 65 1025.9
20260503030434 19 93 3.2 6.4 0.00 0.00 0.00 65 1026.0
20260503030233 19 90 3.2 6.4 0.00 0.00 0.00 66 1026.0
20260503030042 19 121 3.2 6.4 0.00 0.00 0.00 65 1026.0
20260503025833 19 121 1.6 6.4 0.00 0.00 0.00 66 1026.0
20260503025633 19 70 3.2 4.8 0.00 0.00 0.00 66 1026.1
20260503025431 19 70 1.6 8.0 0.00 0.00 0.00 66 1026.1
20260503025228 19 72 3.2 8.0 0.00 0.00 0.00 65 1026.1
20260503025027 19 72 3.2 8.0 0.00 0.00 0.00 66 1026.1
20260503024827 19 72 1.6 8.0 0.00 0.00 0.00 66 1026.2
20260503024627 19 70 3.2 8.0 0.00 0.00 0.00 66 1026.1
20260503024426 19 125 3.2 6.4 0.00 0.00 0.00 68 1026.1
20260503024226 18 132 1.6 6.4 0.00 0.00 0.00 67 1026.2
20260503024026 18 111 1.6 6.4 0.00 0.00 0.00 67 1026.2
20260503023826 18 113 1.6 6.4 0.00 0.00 0.00 67 1026.2
20260503023625 18 107 3.2 6.4 0.00 0.00 0.00 67 1026.2
20260503023424 18 70 3.2 6.4 0.00 0.00 0.00 67 1026.2
20260503023224 18 101 3.2 6.4 0.00 0.00 0.00 67 1026.2
20260503023023 18 92 1.6 4.8 0.00 0.00 0.00 67 1026.3
20260503022823 18 77 3.2 4.8 0.00 0.00 0.00 68 1026.3
20260503022622 18 76 1.6 4.8 0.00 0.00 0.00 68 1026.2
20260503022422 18 76 3.2 4.8 0.00 0.00 0.00 69 1026.3
20260503022221 18 76 1.6 4.8 0.00 0.00 0.00 68 1026.2
20260503022021 18 76 1.6 4.8 0.00 0.00 0.00 69 1026.3
20260503021821 18 75 3.2 4.8 0.00 0.00 0.00 69 1026.3
20260503021620 18 75 1.6 4.8 0.00 0.00 0.00 70 1026.3
20260503021418 18 75 3.2 4.8 0.00 0.00 0.00 70 1026.3
20260503021217 18 65 1.6 4.8 0.00 0.00 0.00 70 1026.3
20260503021016 17 65 1.6 8.0 0.00 0.00 0.00 71 1026.4
20260503020815 17 65 0.0 8.0 0.00 0.00 0.00 72 1026.3
20260503020615 17 65 1.6 8.0 0.00 0.00 0.00 72 1026.3
20260503020415 17 65 3.2 8.0 0.00 0.00 0.00 72 1026.3
20260503020214 17 65 3.2 8.0 0.00 0.00 0.00 73 1026.3
20260503020015 17 127 1.6 4.8 0.00 0.00 0.00 74 1026.3
20260503015813 17 127 0.0 4.8 0.00 0.00 0.00 75 1026.4
20260503015613 16 127 1.6 4.8 0.00 0.00 0.00 75 1026.4
20260503015412 16 127 0.0 4.8 0.00 0.00 0.00 77 1026.4
20260503015212 16 127 1.6 4.8 0.00 0.00 0.00 77 1026.4
20260503015012 16 127 1.6 4.8 0.00 0.00 0.00 78 1026.4
20260503014811 16 127 0.0 4.8 0.00 0.00 0.00 78 1026.4
20260503014611 16 127 1.6 4.8 0.00 0.00 0.00 79 1026.4
20260503014411 16 125 1.6 4.8 0.00 0.00 0.00 80 1026.4
20260503014210 15 127 0.0 3.2 0.00 0.00 0.00 80 1026.4
20260503014010 15 110 1.6 3.2 0.00 0.00 0.00 81 1026.4
20260503013808 15 117 0.0 4.8 0.00 0.00 0.00 82 1026.3
20260503013605 15 117 1.6 4.8 0.00 0.00 0.00 83 1026.3
20260503013406 15 117 1.6 4.8 0.00 0.00 0.00 84 1026.4
20260503013204 15 115 1.6 4.8 0.00 0.00 0.00 85 1026.4
20260503013004 14 114 1.6 4.8 0.00 0.00 0.00 86 1026.4
20260503012804 14 110 1.6 4.8 0.00 0.00 0.00 87 1026.5
20260503012604 14 110 3.2 4.8 0.00 0.00 0.00 88 1026.5
20260503012400 13 108 1.6 4.8 0.00 0.00 0.00 89 1026.5
20260503012159 13 103 0.0 4.8 0.00 0.00 0.00 90 1026.4
20260503012000 13 101 1.6 4.8 0.00 0.00 0.00 90 1026.5
20260503011759 13 99 0.0 3.2 0.00 0.00 0.00 91 1026.5
20260503011559 13 99 0.0 3.2 0.00 0.00 0.00 91 1026.4
20260503011357 12 99 0.0 3.2 0.00 0.00 0.00 92 1026.5
20260503011157 12 99 0.0 3.2 0.00 0.00 0.00 92 1026.5
20260503010957 12 214 0.0 1.6 0.00 0.00 0.00 92 1026.5
20260503010757 12 214 0.0 1.6 0.00 0.00 0.00 93 1026.5
20260503010558 12 214 0.0 1.6 0.00 0.00 0.00 93 1026.5
20260503010356 12 214 0.0 1.6 0.00 0.00 0.00 93 1026.5
20260503010155 12 214 0.0 1.6 0.00 0.00 0.00 93 1026.5
20260503005952 11 216 0.0 1.6 0.00 0.00 0.00 93 1026.5
20260503005752 11 217 0.0 1.6 0.00 0.00 0.00 93 1026.4
20260503005552 11 217 0.0 1.6 0.00 0.00 0.00 93 1026.4
20260503005350 11 217 0.0 1.6 0.00 0.00 0.00 93 1026.4
20260503005150 11 217 0.0 1.6 0.00 0.00 0.00 93 1026.4
20260503004949 11 217 0.0 1.6 0.00 0.00 0.00 93 1026.4
20260503004749 11 221 0.0 0.0 0.00 0.00 0.00 93 1026.4
20260503004549 11 221 0.0 1.6 0.00 0.00 0.00 93 1026.4
20260503004348 11 221 0.0 1.6 0.00 0.00 0.00 93 1026.3
20260503004148 11 221 0.0 1.6 0.00 0.00 0.00 93 1026.4
20260503003948 11 221 0.0 1.6 0.00 0.00 0.00 94 1026.4
20260503003747 11 221 0.0 1.6 0.00 0.00 0.00 94 1026.3
20260503003547 10 221 0.0 1.6 0.00 0.00 0.00 94 1026.4
20260503003343 10 221 0.0 1.6 0.00 0.00 0.00 94 1026.2
20260503003143 10 221 0.0 0.0 0.00 0.00 0.00 94 1026.2
20260503002942 10 221 0.0 1.6 0.00 0.00 0.00 94 1026.1
20260503002742 10 221 0.0 1.6 0.00 0.00 0.00 94 1026.1
20260503002541 10 221 0.0 1.6 0.00 0.00 0.00 93 1026.0
20260503002340 10 221 0.0 1.6 0.00 0.00 0.00 94 1025.9
20260503002140 10 221 0.0 1.6 0.00 0.00 0.00 93 1025.9
20260503001940 10 221 0.0 0.0 0.00 0.00 0.00 93 1025.8
20260503001739 9 221 0.0 0.0 0.00 0.00 0.00 93 1025.8
20260503001541 9 221 0.0 0.0 0.00 0.00 0.00 93 1025.7
20260503001339 9 221 0.0 0.0 0.00 0.00 0.00 93 1025.7
20260503001139 9 221 0.0 0.0 0.00 0.00 0.00 93 1025.8
20260503000940 9 221 0.0 0.0 0.00 0.00 0.00 93 1025.7
20260503000739 9 221 0.0 0.0 0.00 0.00 0.00 93 1025.7
20260503000539 9 221 0.0 0.0 0.00 0.00 0.00 93 1025.7
20260503000339 8 221 0.0 0.0 0.00 0.00 0.00 93 1025.8
20260503000141 8 221 0.0 0.0 0.00 0.00 0.00 93 1025.7
20260502235939 8 221 0.0 0.0 0.00 0.00 0.00 92 1025.8
20260502235738 8 221 0.0 0.0 0.00 0.00 0.00 92 1025.9
20260502235539 8 221 0.0 0.0 0.00 0.00 0.00 92 1025.8
20260502235338 8 221 0.0 0.0 0.00 0.00 0.00 92 1025.8
20260502235139 8 221 0.0 0.0 0.00 0.00 0.00 92 1025.8
20260502234938 8 221 0.0 0.0 0.00 0.00 0.00 92 1025.8
20260502234740 8 221 0.0 0.0 0.00 0.00 0.00 92 1025.8
20260502234538 8 221 0.0 0.0 0.00 0.00 0.00 92 1025.8
20260502234339 8 221 0.0 0.0 0.00 0.00 0.00 92 1025.7
20260502234139 8 221 0.0 0.0 0.00 0.00 0.00 92 1025.7
20260502233939 8 221 0.0 0.0 0.00 0.00 0.00 92 1025.7
20260502233738 8 221 0.0 0.0 0.00 0.00 0.00 92 1025.7
20260502233539 8 221 0.0 0.0 0.00 0.00 0.00 92 1025.7
20260502233338 8 221 0.0 0.0 0.00 0.00 0.00 91 1025.7
20260502233138 8 221 0.0 0.0 0.00 0.00 0.00 91 1025.7
20260502232938 8 221 0.0 0.0 0.00 0.00 0.00 92 1025.7
20260502232739 8 221 0.0 0.0 0.00 0.00 0.00 92 1025.7
20260502232538 8 221 0.0 0.0 0.00 0.00 0.00 91 1025.6
20260502232338 8 221 0.0 0.0 0.00 0.00 0.00 91 1025.6
20260502232138 8 221 0.0 0.0 0.00 0.00 0.00 91 1025.6
20260502231938 8 221 0.0 0.0 0.00 0.00 0.00 91 1025.7
20260502231739 8 221 0.0 0.0 0.00 0.00 0.00 91 1025.6
20260502231538 8 221 0.0 0.0 0.00 0.00 0.00 91 1025.6
20260502231338 8 221 0.0 0.0 0.00 0.00 0.00 91 1025.5
20260502231138 8 221 0.0 0.0 0.00 0.00 0.00 91 1025.6
20260502230938 8 220 0.0 0.0 0.00 0.00 0.00 90 1025.6
20260502230737 8 220 0.0 0.0 0.00 0.00 0.00 90 1025.5
20260502230540 8 220 0.0 0.0 0.00 0.00 0.00 90 1025.5
20260502230338 8 220 0.0 0.0 0.00 0.00 0.00 90 1025.5
20260502230138 8 220 0.0 0.0 0.00 0.00 0.00 90 1025.4
20260502225938 8 220 0.0 0.0 0.00 0.00 0.00 90 1025.4
20260502225737 8 220 0.0 0.0 0.00 0.00 0.00 91 1025.3
20260502225538 8 220 0.0 0.0 0.00 0.00 0.00 90 1025.3
20260502225337 8 220 0.0 0.0 0.00 0.00 0.00 90 1025.2
20260502225137 8 220 0.0 0.0 0.00 0.00 0.00 90 1025.1
20260502224938 8 220 0.0 0.0 0.00 0.00 0.00 90 1025.1
20260502224737 8 220 0.0 0.0 0.00 0.00 0.00 91 1025.1
20260502224538 8 220 0.0 0.0 0.00 0.00 0.00 91 1025.2
20260502224338 8 220 0.0 0.0 0.00 0.00 0.00 91 1025.2
20260502224137 8 220 0.0 0.0 0.00 0.00 0.00 91 1025.1
20260502223937 8 220 0.0 0.0 0.00 0.00 0.00 91 1025.1
20260502223737 8 220 0.0 0.0 0.00 0.00 0.00 91 1025.0
20260502223537 8 220 0.0 0.0 0.00 0.00 0.00 91 1025.0
20260502223337 8 220 0.0 0.0 0.00 0.00 0.00 91 1025.0
20260502223138 8 220 0.0 0.0 0.00 0.00 0.00 91 1024.9
20260502222937 8 220 0.0 0.0 0.00 0.00 0.00 91 1025.0
20260502222735 8 220 0.0 0.0 0.00 0.00 0.00 91 1024.9
20260502222535 8 220 0.0 0.0 0.00 0.00 0.00 91 1024.9
20260502222335 8 220 0.0 0.0 0.00 0.00 0.00 91 1025.0
20260502222135 8 220 0.0 0.0 0.00 0.00 0.00 91 1025.0
20260502221934 8 220 0.0 0.0 0.00 0.00 0.00 91 1024.9
20260502221735 8 220 0.0 0.0 0.00 0.00 0.00 91 1024.8
20260502221535 8 220 0.0 0.0 0.00 0.00 0.00 91 1024.8
20260502221335 8 220 0.0 0.0 0.00 0.00 0.00 91 1024.9
20260502221135 8 220 0.0 0.0 0.00 0.00 0.00 91 1024.9
20260502220934 8 220 0.0 0.0 0.00 0.00 0.00 91 1024.8
20260502220735 8 220 0.0 0.0 0.00 0.00 0.00 91 1024.8
20260502220534 8 220 0.0 0.0 0.00 0.00 0.00 91 1024.8
20260502220332 8 220 0.0 0.0 0.00 0.00 0.00 91 1024.7
20260502220135 8 220 0.0 0.0 0.00 0.00 0.00 91 1024.8
20260502215933 8 220 0.0 0.0 0.00 0.00 0.00 91 1024.8
20260502215732 8 220 0.0 0.0 0.00 0.00 0.00 91 1024.9
20260502215533 8 220 0.0 0.0 0.00 0.00 0.00 91 1024.9
20260502215333 8 220 0.0 0.0 0.00 0.00 0.00 91 1024.8
20260502215108 8 220 0.0 0.0 0.00 0.00 0.00 91 1024.8
20260502214909 8 220 0.0 0.0 0.00 0.00 0.00 91 1024.8
20260502214706 8 220 0.0 0.0 0.00 0.00 0.00 91 1024.8
20260502214504 8 220 0.0 0.0 0.00 0.00 0.00 91 1024.8
20260502214303 8 220 0.0 0.0 0.00 0.00 0.00 91 1024.8
20260502214103 8 220 0.0 0.0 0.00 0.00 0.00 91 1024.8
20260502213904 8 220 0.0 0.0 0.00 0.00 0.00 91 1024.8
20260502213703 8 220 0.0 0.0 0.00 0.00 0.00 91 1024.8
20260502213505 8 220 0.0 0.0 0.00 0.00 0.00 91 1024.8
20260502213303 8 220 0.0 0.0 0.00 0.00 0.00 90 1024.7
20260502213104 8 220 0.0 0.0 0.00 0.00 0.00 90 1024.6
20260502212904 8 220 0.0 0.0 0.00 0.00 0.00 90 1024.7
20260502212704 8 220 0.0 0.0 0.00 0.00 0.00 90 1024.7
20260502212504 8 220 0.0 0.0 0.00 0.00 0.00 90 1024.6
20260502212305 8 220 0.0 0.0 0.00 0.00 0.00 90 1024.6
20260502212102 8 220 0.0 0.0 0.00 0.00 0.00 90 1024.6
20260502211901 8 220 0.0 0.0 0.00 0.00 0.00 90 1024.6
20260502211700 8 220 0.0 0.0 0.00 0.00 0.00 90 1024.6
20260502211500 8 220 0.0 0.0 0.00 0.00 0.00 90 1024.6
20260502211301 8 220 0.0 1.6 0.00 0.00 0.00 90 1024.6
20260502211055 8 220 0.0 1.6 0.00 0.00 0.00 90 1024.6
20260502210854 8 220 0.0 1.6 0.00 0.00 0.00 90 1024.6
20260502210649 8 220 0.0 1.6 0.00 0.00 0.00 90 1024.5
20260502210449 8 220 0.0 1.6 0.00 0.00 0.00 90 1024.5
20260502210248 8 220 0.0 0.0 0.00 0.00 0.00 90 1024.6
20260502210049 8 220 0.0 0.0 0.00 0.00 0.00 90 1024.6
20260502205836 8 220 0.0 0.0 0.00 0.00 0.00 90 1024.5
20260502205636 8 220 0.0 0.0 0.00 0.00 0.00 90 1024.6
20260502205436 8 220 0.0 0.0 0.00 0.00 0.00 90 1024.5
20260502205236 8 220 0.0 0.0 0.00 0.00 0.00 90 1024.6
20260502205037 8 220 0.0 0.0 0.00 0.00 0.00 90 1024.5
20260502204836 8 220 0.0 0.0 0.00 0.00 0.00 90 1024.5
20260502204636 8 220 0.0 0.0 0.00 0.00 0.00 90 1024.5
20260502204435 8 220 0.0 0.0 0.00 0.00 0.00 90 1024.4
20260502204237 8 220 0.0 0.0 0.00 0.00 0.00 90 1024.4
20260502204035 8 220 0.0 0.0 0.00 0.00 0.00 90 1024.4
20260502203830 8 220 0.0 0.0 0.00 0.00 0.00 90 1024.4
20260502203631 8 220 0.0 0.0 0.00 0.00 0.00 90 1024.3
20260502203431 8 220 0.0 0.0 0.00 0.00 0.00 89 1024.4
20260502203230 8 220 0.0 0.0 0.00 0.00 0.00 89 1024.4
20260502203029 8 220 0.0 0.0 0.00 0.00 0.00 89 1024.4
20260502202826 8 220 0.0 0.0 0.00 0.00 0.00 89 1024.4
20260502202626 8 220 0.0 0.0 0.00 0.00 0.00 89 1024.4
20260502202426 8 220 0.0 0.0 0.00 0.00 0.00 89 1024.4
20260502202225 8 220 0.0 0.0 0.00 0.00 0.00 89 1024.4
20260502202025 8 220 0.0 0.0 0.00 0.00 0.00 89 1024.4
20260502201825 8 220 0.0 0.0 0.00 0.00 0.00 89 1024.3
20260502201624 8 220 0.0 0.0 0.00 0.00 0.00 89 1024.4
20260502201423 8 220 0.0 0.0 0.00 0.00 0.00 89 1024.3
20260502201223 8 220 0.0 0.0 0.00 0.00 0.00 89 1024.3
20260502201023 8 220 0.0 0.0 0.00 0.00 0.00 89 1024.4
20260502200822 8 220 0.0 0.0 0.00 0.00 0.00 89 1024.4
20260502200622 8 220 0.0 0.0 0.00 0.00 0.00 89 1024.3
20260502200421 8 220 0.0 0.0 0.00 0.00 0.00 89 1024.4
20260502200221 8 220 0.0 0.0 0.00 0.00 0.00 89 1024.4
20260502200020 8 220 0.0 0.0 0.00 0.00 0.00 89 1024.4
20260502195817 8 220 0.0 0.0 0.00 0.00 0.00 89 1024.3
20260502195619 8 220 0.0 0.0 0.00 0.00 0.00 89 1024.3
20260502195415 8 220 0.0 0.0 0.00 0.00 0.00 89 1024.4
20260502195213 8 220 0.0 0.0 0.00 0.00 0.00 89 1024.4
20260502195012 8 220 0.0 0.0 0.00 0.00 0.00 89 1024.4
20260502194812 8 220 0.0 0.0 0.00 0.00 0.00 89 1024.5
20260502194608 8 220 0.0 0.0 0.00 0.00 0.00 89 1024.4
20260502194408 8 220 0.0 0.0 0.00 0.00 0.00 89 1024.4
20260502194208 8 220 0.0 0.0 0.00 0.00 0.00 89 1024.3
20260502194006 8 220 0.0 0.0 0.00 0.00 0.00 89 1024.4
20260502193807 8 220 0.0 0.0 0.00 0.00 0.00 89 1024.4
20260502193610 8 220 0.0 0.0 0.00 0.00 0.00 89 1024.4
20260502193406 8 220 0.0 0.0 0.00 0.00 0.00 89 1024.3
20260502193206 8 220 0.0 0.0 0.00 0.00 0.00 89 1024.4
20260502193006 8 220 0.0 0.0 0.00 0.00 0.00 89 1024.4
20260502192805 8 220 0.0 0.0 0.00 0.00 0.00 89 1024.4
20260502192605 8 220 0.0 0.0 0.00 0.00 0.00 89 1024.4
20260502192405 8 220 0.0 0.0 0.00 0.00 0.00 89 1024.5
20260502192206 8 220 0.0 0.0 0.00 0.00 0.00 89 1024.4
20260502192006 8 220 0.0 0.0 0.00 0.00 0.00 88 1024.4
20260502191804 8 220 0.0 0.0 0.00 0.00 0.00 88 1024.4
20260502191604 8 220 0.0 0.0 0.00 0.00 0.00 88 1024.4
20260502191403 8 220 0.0 0.0 0.00 0.00 0.00 88 1024.4
20260502191203 8 220 0.0 0.0 0.00 0.00 0.00 88 1024.4
20260502191002 8 220 0.0 0.0 0.00 0.00 0.00 88 1024.4
20260502190803 9 220 0.0 0.0 0.00 0.00 0.00 88 1024.4
20260502190602 9 220 0.0 0.0 0.00 0.00 0.00 88 1024.5
20260502190402 9 220 0.0 0.0 0.00 0.00 0.00 88 1024.4
20260502190202 9 220 0.0 0.0 0.00 0.00 0.00 88 1024.4
20260502190004 9 220 0.0 0.0 0.00 0.00 0.00 88 1024.4
20260502185802 9 220 0.0 0.0 0.00 0.00 0.00 88 1024.4
20260502185603 9 220 0.0 0.0 0.00 0.00 0.00 88 1024.4
20260502185402 9 220 0.0 0.0 0.00 0.00 0.00 88 1024.4
20260502185202 9 220 0.0 0.0 0.00 0.00 0.00 88 1024.4
20260502185003 9 220 0.0 0.0 0.00 0.00 0.00 88 1024.4
20260502184802 9 220 0.0 0.0 0.00 0.00 0.00 88 1024.4
20260502184602 9 220 0.0 0.0 0.00 0.00 0.00 88 1024.4
20260502184402 9 220 0.0 0.0 0.00 0.00 0.00 88 1024.4
20260502184203 9 220 0.0 0.0 0.00 0.00 0.00 88 1024.5
20260502184002 9 220 0.0 0.0 0.00 0.00 0.00 88 1024.5
20260502183802 9 220 0.0 0.0 0.00 0.00 0.00 88 1024.4
20260502183602 9 220 0.0 0.0 0.00 0.00 0.00 88 1024.5
20260502183402 9 220 0.0 0.0 0.00 0.00 0.00 88 1024.4
20260502183202 9 220 0.0 0.0 0.00 0.00 0.00 88 1024.4
20260502183002 9 220 0.0 0.0 0.00 0.00 0.00 88 1024.4
20260502182802 9 220 0.0 0.0 0.00 0.00 0.00 88 1024.4
20260502182603 9 220 0.0 0.0 0.00 0.00 0.00 88 1024.4
20260502182402 9 220 0.0 0.0 0.00 0.00 0.00 88 1024.4
20260502182202 9 220 0.0 0.0 0.00 0.00 0.00 88 1024.4
20260502182003 9 220 0.0 0.0 0.00 0.00 0.00 88 1024.4
20260502181802 9 220 0.0 0.0 0.00 0.00 0.00 88 1024.5
20260502181602 9 220 0.0 0.0 0.00 0.00 0.00 88 1024.5
20260502181402 9 220 0.0 0.0 0.00 0.00 0.00 88 1024.5